Overview Statistics Trail Chart Weather Telemetry Raw packets
 

This is the latest recevied weather packets stored in our database for station/object WX5RP. If no packets are shown the sender has not sent any weather packets the latest 10 day(s).

<< 12 13 14 15 16 17 18 >>
Time Temp. Humidity Pressure Rain* Wind** Luminosity Snow
1777793117 9.44° C 66% 1017.1 hPa 0 mm - 0 W/m² -
1777792517 10° C 64% 1016.9 hPa 0 mm - 0 W/m² -
1777791916 10° C 65% 1017.4 hPa 0 mm - 0 W/m² -
1777791317 8.89° C 69% 1017 hPa 0 mm - 0 W/m² -
1777790718 10° C 66% 1017 hPa 0 mm - 0 W/m² -
1777790117 10° C 69% 1017 hPa 0 mm - 0 W/m² -
1777789516 10° C 68% 1016.7 hPa 0 mm - 0 W/m² -
1777788916 10.56° C 67% 1016.7 hPa 0 mm - 0 W/m² -
1777788316 11.11° C 64% 1016.7 hPa 0 mm - 0 W/m² -
1777787716 12.22° C 60% 1016.4 hPa 0 mm - 0 W/m² -
1777787116 12.78° C 54% 1016.4 hPa 0 mm - 0 W/m² -
1777786516 12.78° C 58% 1015.9 hPa 0 mm - 0 W/m² -
1777785916 13.33° C 53% 1016.1 hPa 0 mm - 0 W/m² -
1777785316 13.89° C 53% 1016.1 hPa 0 mm - 0 W/m² -
1777784716 13.89° C 54% 1016.8 hPa 0 mm - 0 W/m² -
1777784116 14.44° C 50% 1016.5 hPa 0 mm - 0 W/m² -
1777783516 14.44° C 49% 1016.2 hPa 0 mm - 0 W/m² -
1777782916 14.44° C 50% 1015.9 hPa 0 mm - 0 W/m² -
1777782316 14.44° C 50% 1015.5 hPa 0 mm - 0 W/m² -
1777781716 15° C 49% 1015.5 hPa 0 mm - 0 W/m² -
1777781116 14.44° C 49% 1015.9 hPa 0 mm - 0 W/m² -
1777780516 15° C 47% 1015.5 hPa 0 mm - 0 W/m² -
1777779916 15.56° C 45% 1015.2 hPa 0 mm - 0 W/m² -
1777779316 16.11° C 44% 1014.8 hPa 0 mm - 0 W/m² -
1777778715 16.11° C 42% 1014.1 hPa 0 mm - 0 W/m² -

* Rain latest hour (hover to see other rain measurements)
** Current wind speed in m/s (hover to see current wind gust speed)